Hourly Data Report for September 02, 2020

OTTAWA INTL A
ONTARIO
Current Station Operator: NAVCAN

45°19'00.000" N
75°40'00.000" W
114.90 m
6106001
71628
YOW

Download Data

Hourly Data (September 2020)
Hourly Data Report for September 2, 2020
TIME Temp Definition
°C
Dew Point Definition
°C
Rel Hum Definition
%
Wind Dir Definition
10's deg

Wind Spd Definition
km/h
Visibility Definition
km
Stn Press Definition
kPa
Hmdx Definition


Wind Chill Definition


Weather Definition


00:00 19.2 17.4 89 16 10 24.1 99.94     LegendNANA
01:00 19.3 17.4 88 16 12 24.1 99.87     Mostly Cloudy
02:00 19.8 17.5 86 17 11 24.1 99.75     LegendNANA
03:00 20.3 17.5 84 17 14 24.1 99.69 26   LegendNANA
04:00 20.3 17.3 83 17 14 24.1 99.63 26   Rain Showers
05:00 19.8 17.5 86 16 17 24.1 99.50     LegendNANA
06:00 19.8 17.3 85 16 16 24.1 99.42     Rain Showers
07:00 20.1 17.4 84 17 17 24.1 99.39 26   Cloudy
08:00 20.3 17.4 84 17 17 24.1 99.34 26   LegendNANA
09:00 20.8 17.6 82 16 17 24.1 99.33 27   LegendNANA
10:00 21.5 18.3 82 16 14 24.1 99.20 28   Cloudy
11:00 22.9 18.9 78 18 27 24.1 99.11 30   LegendNANA
12:00 23.8 19.4 76 19 26 24.1 98.98 31   LegendNANA
13:00 23.9 19.8 77 19 27 24.1 98.90 31   Cloudy
14:00 25.7 20.5 73 20 23 24.1 98.81 34   LegendNANA
15:00 26.1 20.6 71 20 22 24.1 98.72 34   LegendNANA
16:00 25.0 20.5 76 21 25 24.1 98.72 33   Mostly Cloudy
17:00 19.5 18.6 94 26 18 4.0 98.86     Moderate Rain Showers,Fog
18:00 20.4 19.6 95 22 10 24.1 98.86 28   LegendNANA
19:00 20.3 19.3 94 23 10 16.1 98.99 27   Mostly Cloudy
20:00 18.6 17.9 96 24 10 24.1 99.14     LegendNANA
21:00 18.3 17.8 96 23 9 24.1 99.22     LegendNANA
22:00 17.8 16.5 92 25 13 24.1 99.34     Mainly Clear
23:00 16.1 14.9 93 25 10 24.1 99.42     LegendNANA

Notes on Data Quality.

Legend

  • E = Estimated
  • M = Missing
  • NA = Not Available*
  • [empty] = Indicates an unobserved value
Date modified: